This demonstration page uses our WeatherBlox Daily Observations layout. Learn more.

Left ArrowRight Arrow

39.92423, -83.80882

Hourly Observations for September 15, 2015

Temp ( °F °C ) Dew Point ( °F °C ) Humidity (%) Winds ( mph kmh ) Pressure ( in mb ) Visibility ( mi km ) Precip ( " mm )
12:56 am 00:56 Clear 57 13.8 50 10 78 78 S 5 7 30.26 1025 10 16 N/A
1:56 am 01:56 Clear 56 13.3 50 10 81 81 S 3 6 30.27 1025 10 16 N/A
2:56 am 02:56 Clear 50 10 48 8.8 92 92 SSE 3 6 30.29 1026 10 16 N/A
3:56 am 03:56 Clear 55 12.7 50 10 84 84 S 3 6 30.29 1026 10 16 N/A
4:56 am 04:56 Clear 55 12.7 50 10 84 84 S 5 7 30.29 1026 10 16 N/A
5:56 am 05:56 Clear 52 11.1 49 9.4 89 89 S 3 6 30.31 1027 10 16 N/A
6:56 am 06:56 Clear 50 10 47 8.3 89 89 S 3 6 30.34 1027 10 16 N/A
7:56 am 07:56 Sunny 49 9.4 47 8.3 93 93 E 3 6 30.35 1028 10 16 N/A
8:56 am 08:56 Sunny 59 15 53 11.6 80 80 S 5 7 30.37 1028 10 16 N/A
9:56 am 09:56 Sunny 66 18.8 55 12.7 68 68 SSW 6 9 30.37 1029 10 16 N/A
10:56 am 10:56 Sunny 71 21.6 54 12.2 55 55 VRB 5 7 30.38 1029 10 16 N/A
11:56 am 11:56 Sunny 74 23.3 54 12.2 50 50 VRB 3 6 30.37 1029 10 16 N/A
12:56 pm 12:56 Sunny 76 24.4 54 12.2 47 47 VRB 6 9 30.36 1028 10 16 N/A
1:56 pm 13:56 Sunny 78 25.5 53 11.6 42 42 SSE 8 13 30.34 1027 10 16 N/A
2:56 pm 14:56 Sunny 80 26.6 52 11.1 38 38 VRB 6 9 30.32 1027 10 16 N/A
3:56 pm 15:56 Sunny 82 27.7 52 11.1 36 36 VRB 7 11 30.30 1026 10 16 N/A
4:56 pm 16:56 Sunny 82 27.7 50 10 33 33 S 8 13 30.30 1026 10 16 N/A
5:56 pm 17:56 Sunny 81 27.2 49 9.4 33 33 S 8 13 30.29 1026 10 16 N/A
6:56 pm 18:56 Sunny 78 25.5 52 11.1 41 41 SSE 6 9 30.30 1026 10 16 N/A
7:56 pm 19:56 Clear 69 20.5 53 11.6 57 57 SE 7 11 30.31 1026 10 16 N/A
8:56 pm 20:56 Clear 67 19.4 51 10.5 57 57 SE 5 7 30.31 1026 10 16 N/A
9:56 pm 21:56 Clear 64 17.7 52 11.1 65 65 SE 5 7 30.32 1027 10 16 N/A
10:56 pm 22:56 Clear 59 15 52 11.1 78 78 SE 5 7 30.32 1027 10 16 N/A
11:56 pm 23:56 Clear 63 17.2 53 11.6 70 70 SSE 8 13 30.32 1027 10 16 N/A

Powered by AerisWeather